Regional Weather Roundup
Issued by NWS

Home | Current Version | Previous Version | Graphics & Text | Print | Product List | Glossary On
Versions: 1 2 3 4 5 6 7 8 9 10 11 12 13 14 15 16 17 18 19 20 21 22 23 24 25 26 27 28 29 30 31 32 33 34 35 36 37 38 39 40 41 42 43 44 45 46 47 48 49 50
000
ASUS45 KABQ 271201
RWRNM
NEW MEXICO REGIONAL WEATHER ROUNDUP
NATIONAL WEATHER SERVICE ALBUQUERQUE NM
600 AM MDT FRI MAY 27 2016

NOTE: "FAIR" MEANS FEW OR NO CLOUDS BELOW 12,000 FEET AGL WITH NO
       SIGNIFICANT WEATHER OR OBSTRUCTIONS TO VISION.

      THIS PRODUCT IS RELEASED AS TWO VERSIONS.  ONE VERSION NEAR
      THE TOP OF THE HOUR CONTAINING PRELIMINARY DATA FROM ALBUQUERQUE
      AND OTHER STATIONS.  A FINAL VERSION WITH ADDITIONAL DATA IS
      ISSUED ABOUT 10 MINUTES AFTER THE HOUR.

NMZ501-503-504-510>518-271300-
NORTHWEST PLATEAU/NORTHCENTRAL MOUNTAINS

CITY           SKY/WX    TMP DP  RH WIND       PRES   REMARKS
FARMINGTON     FAIR      45  31  58 W3        29.93R
6HR MIN TEMP:  44; 6HR MAX TEMP:  54;

SANTA FE       MOCLDY    45  25  45 VRB5      29.91R
6HR MIN TEMP:  41; 6HR MAX TEMP:  51;

TAOS           CLOUDY    43  28  56 SW6       29.95R

$$
NMZ402-403-502-505>509-271300-
WESTCENTRAL MOUNTAINS/SOUTHWEST MOUNTAINS

CITY           SKY/WX    TMP DP  RH WIND       PRES   REMARKS
GALLUP         FAIR      36  27  69 CALM      30.01S
6HR MIN TEMP:  34; 6HR MAX TEMP:  48;

GRANTS         FAIR      36  26  67 W5        30.00S WCI  32
SILVER CITY      N/A     39  23  52 N9        30.01R WCI  33

$$
NMZ407-409-411-412-271300-
SOUTHERN DESERTS

CITY           SKY/WX    TMP DP  RH WIND       PRES   REMARKS
LORDSBURG      FAIR      45  19  36 CALM      29.98R
DEMING         FAIR      48  24  39 W7        29.96S
6HR MIN TEMP:  48; 6HR MAX TEMP:  61;

HOLLOMAN AFB   FAIR      49  17  27 CALM      29.90R
ALAMOGORDO     FAIR      48  19  32 E3        29.91S
T OR C         FAIR      54  26  34 NW9       29.94R
6HR MIN TEMP:  54; 6HR MAX TEMP:  63;


$$
NMZ519>523-271300-
CENTRAL VALLEYS/CENTRAL HIGHLANDS

CITY           SKY/WX    TMP DP  RH WIND       PRES   REMARKS
ALBUQUERQUE    FAIR      46  23  40 SE8       29.93R
6HR MIN TEMP:  45; 6HR MAX TEMP:  58;

DOUBLE EAGLE   MOCLDY    45  27  49 W8        29.94S
CLINES CORNERS FAIR      41  23  48 W16       29.91S
6HR MIN TEMP:  36; 6HR MAX TEMP:  42;

BELEN          FAIR      48  26  42 W10       29.93S
6HR MIN TEMP:  45; 6HR MAX TEMP:  55;

SOCORRO        NOT AVBL

$$
NMZ524>526-539-540-271300-
SOUTHCENTRAL MOUNTAINS

CITY           SKY/WX    TMP DP  RH WIND       PRES   REMARKS
RUIDOSO        NOT AVBL

$$
NMZ527>531-271300-
NORTHEAST HIGHLANDS/NORTHEAST PLAINS

CITY           SKY/WX    TMP DP  RH WIND       PRES   REMARKS
LAS VEGAS      FAIR      38  22  52 E8        29.89R WCI  32
6HR MIN TEMP:  36; 6HR MAX TEMP:  45;

RATON          FAIR      42  34  73 CALM      29.86R
6HR MIN TEMP:  37; 6HR MAX TEMP:  43;

CLAYTON        FAIR      48  38  68 NW15G22   29.83R
6HR MIN TEMP:  46; 6HR MAX TEMP:  53;


$$
NMZ532>537-271300-
EASTCENTRAL PLAINS

CITY           SKY/WX    TMP DP  RH WIND       PRES   REMARKS
TUCUMCARI      FAIR      45  36  70 CALM      29.84R
6HR MIN TEMP:  44; 6HR MAX TEMP:  55;

CANNON AFB     NOT AVBL
CLOVIS AIRPORT FAIR      48  34  57 N5        29.84R

$$
NMZ028-029-538-271300-
SOUTHEAST PLAINS

CITY           SKY/WX    TMP DP  RH WIND       PRES   REMARKS
ROSWELL        FAIR      51  19  28 W6        29.85R
6HR MIN TEMP:  51; 6HR MAX TEMP:  64;

ARTESIA        FAIR      54  16  22 CALM      29.86R
CARLSBAD       FAIR      59  14  17 W12       29.83R
6HR MIN TEMP:  57; 6HR MAX TEMP:  72;

HOBBS          CLEAR     54  18  24 W8        29.84R


$$



USA.gov is the U.S. government's official web portal to all federal, state and local government web resources and services.